{"data":{"norad_id":44786,"intl_designator":"2019-077B","name":"KL-ALPHA B","alt_names":[],"object_type":"PAYLOAD","status":"ACTIVE","operator":null,"country":"GER","launch_date":"2019-11-17","launch_site_code":"JSC","launch_vehicle":null,"mission":null,"orbit_class":"UNKNOWN","rcs_meters":null,"size_class":null,"mass_kg":null,"dimensions":null,"purposes":[],"wikipedia_slug":null,"has_3d_model":false,"image_url":null,"decayed_at":null,"tle_current":{"epoch":"2026-05-25T04:18:11.668608Z","epoch_age_seconds":59235,"freshness":"FRESH","line1":"1 44786U 19077B   26145.17930172  .00000216  00000+0  29151-3 0  9990","line2":"2 44786  88.9122 222.7001 0025210 213.0891 146.8687 13.56000251322065","mean_motion":13.56000251,"eccentricity":0.002521,"inclination_deg":88.9122,"raan_deg":222.7001,"arg_perigee_deg":213.0891,"mean_anomaly_deg":146.8687,"bstar":0.00029151,"rev_number":32206,"period_min":106.19467060851,"perigee_km":1031.5368006771,"apogee_km":1068.9907975061,"semimajor_km":7428.4007990916,"source":"CELESTRAK","updated_at":"2026-05-25T13:37:56.032300Z"}}}